Zurück zum Katalog

STARLINK-37280

AktivKommunikationVLEO
NORAD 68511·PAYLOAD·🇺🇸 United States

Gestartet Mar 30, 2026 von Cape Canaveral Space Force Station

Loading…

Nächste Überflüge (nächste 24 Stunden)

TLE

AktuellSource: CelesTrak SupGP

Epoche: Sep 14, 2026, 21:20 UTC

1 68511C 26068D   26257.88937500 -.00010464  00000+0 -30930-3 0  2576
2 68511  53.1586 319.9451 0001126  87.9868  89.8082 15.34381924    15

Verfolge STARLINK-37280 in Echtzeit mit AllMySat

Download on the App Store